RH
10 10 11 13 17 20 22 21 19 19 19 18 19 19 20 22 23 24 22 27 27 24 23 22 21 23 27 29 35 40 41 43 47 49 48 50 52 52 51 49 48 46 40 39 36 34 36 44 52
10 11 13 16 20 22 20 21 21 21 20 20 19 20 21 25 26 23 24 26 27 21 21 24 22 19 22 28 32 41 48 51 53 51 56 58 56 57 60 52 47 44 38 35 35 33 38 45 45
11 12 15 18 23 22 18 20 21 21 20 20 19 18 21 23 24 23 24 25 23 23 25 25 22 16 18 23 31 38 45 51 54 53 55 57 53 79 57 60 57 45 43 34 34 37 39 44 38
13 16 17 20 22 19 16 20 22 21 20 19 19 21 22 23 23 24 25 25 24 26 27 27 24 16 16 21 26 33 40 47 51 55 59 57 58 60 84 74 72 68 57 48 36 44 45 41 39
15 17 19 21 20 17 16 18 23 25 22 19 21 22 24 23 26 26 25 26 26 26 27 26 22 17 16 20 25 28 34 40 45 50 58 63 72 76 74 77 80 79 71 61 51 49 52 42 37
19 19 23 23 19 15 17 20 25 23 21 19 22 25 24 25 27 26 27 27 28 26 27 23 19 18 19 20 25 29 32 36 41 46 54 61 67 74 81 82 84 86 86 77 67 58 50 38 37
19 21 23 21 19 17 18 22 25 23 21 20 21 24 24 24 27 29 29 29 28 26 26 25 22 18 18 22 27 33 35 39 42 46 50 51 59 61 74 77 84 81 82 86 80 57 52 44 34
20 23 22 22 20 20 16 22 24 21 21 20 20 25 25 23 28 31 31 29 28 26 26 26 25 20 20 23 30 37 42 44 41 49 54 50 51 56 65 64 68 77 77 90 80 59 54 52 38
25 26 25 24 21 21 18 20 22 23 23 21 22 22 22 23 28 31 32 31 30 27 27 27 26 22 24 26 30 37 43 44 41 46 50 52 52 54 58 62 71 77 75 93 76 66 55 53 46
28 30 26 23 22 21 19 20 22 25 23 22 23 23 23 24 26 28 29 30 30 30 27 28 26 26 26 26 29 38 41 40 39 42 42 45 51 54 63 67 76 77 80 85 72 64 53 56 48
30 27 26 26 25 23 22 20 23 24 26 24 25 24 24 26 28 29 30 31 31 33 29 28 29 29 30 28 30 33 38 39 38 39 45 50 57 61 74 80 86 92 95 89 75 72 58 60 58
32 29 30 30 29 28 25 22 21 25 25 25 27 27 25 26 27 29 31 33 32 32 32 28 31 33 34 30 31 33 36 38 40 41 46 57 62 85 89 89 96 98 95 86 71 76 67 68 67
32 31 31 31 32 30 29 26 25 24 24 26 27 29 28 28 28 27 29 33 34 33 32 29 32 34 35 32 33 31 29 32 38 44 54 61 72 96 96 95 98 96 95 84 72 76 72 64 57
33 31 31 33 34 34 32 29 29 24 27 28 29 29 30 29 30 29 30 32 33 33 34 31 33 37 33 33 36 32 28 32 38 45 54 63 81 97 97 95 98 96 97 87 77 84 70 67 60
33 33 32 32 33 33 36 29 27 28 30 30 31 32 31 31 30 29 29 32 34 33 33 34 35 39 33 34 37 31 28 31 38 44 54 67 77 94 97 96 97 99 97 87 78 79 75 69 63
35 35 37 33 34 34 38 26 29 32 34 32 31 30 29 31 31 31 31 32 34 36 35 39 40 42 35 38 35 29 26 28 37 44 53 67 75 93 97 97 98 99 96 84 71 73 74 66 62
37 39 37 36 34 37 36 30 29 31 34 31 31 31 32 32 33 31 32 33 34 35 35 39 42 43 39 40 34 30 27 33 38 47 53 62 75 88 98 98 99 97 97 78 68 72 70 66 63
38 39 38 38 37 38 35 31 31 30 31 29 29 30 32 33 34 33 32 31 34 35 35 39 41 39 39 40 32 28 29 34 44 55 62 61 73 82 97 99 97 98 90 77 61 69 66 63 64
35 36 37 35 35 34 31 28 27 30 30 29 30 33 34 34 35 35 33 31 34 35 35 40 43 42 39 38 29 24 27 35 50 62 71 70 72 82 96 98 97 95 88 70 62 67 64 66 65
32 34 33 32 32 31 27 21 20 22 26 28 28 31 35 35 35 35 35 33 35 35 37 40 44 44 40 38 28 22 25 41 51 63 70 75 77 79 93 95 96 92 77 70 68 66 64 65 66
26 29 25 26 25 22 22 18 21 21 23 23 25 28 32 36 34 34 35 36 36 37 39 41 44 46 43 37 27 22 30 42 50 64 70 73 75 91 96 96 96 93 80 76 63 62 65 70 74
23 23 23 24 25 26 27 23 17 20 21 23 23 23 25 34 34 35 38 38 38 40 43 44 46 49 46 37 24 21 26 37 47 56 64 74 80 78 86 96 94 91 83 79 72 71 75 74 74
27 32 35 34 33 31 30 46 24 26 25 23 22 25 27 29 35 37 41 40 42 43 45 45 47 51 47 36 24 22 28 37 49 59 65 65 67 75 85 81 91 93 90 85 83 79 74 74 75
37 37 39 40 41 51 37 51 24 25 29 27 28 31 36 32 38 41 44 44 46 48 48 47 48 51 47 32 23 24 31 42 56 73 67 67 70 76 79 86 93 93 97 90 88 86 84 81 85
35 39 52 59 67 50 45 53 30 32 30 35 39 40 42 39 39 46 44 45 46 45 50 50 49 51 42 29 23 26 34 48 59 75 75 74 77 81 88 92 96 93 97 95 94 93 94 92 89
33 42 54 59 59 43 49 54 37 35 39 41 41 44 57 51 47 48 44 47 46 44 50 50 50 46 36 26 24 30 38 51 60 81 82 82 83 88 93 96 98 99 99 97 96 95 94 95 91
29 43 50 60 55 62 57 47 36 41 46 47 49 57 68 59 55 53 48 48 46 42 45 47 47 43 34 26 24 31 38 45 54 74 87 91 91 90 91 95 97 96 98 97 97 94 97 93 93
33 34 55 63 66 67 54 50 50 51 57 55 57 71 76 65 61 55 54 52 47 42 49 51 51 42 32 26 25 31 37 42 48 57 76 86 87 88 89 91 93 93 94 95 94 96 94 94 94
43 43 48 50 61 68 63 57 59 58 57 65 73 93 86 74 66 68 66 58 57 53 54 51 48 41 31 27 26 30 36 40 44 50 57 63 72 82 90 94 95 93 94 94 95 95 95 93 92
43 47 56 63 61 69 73 61 61 60 59 68 82 92 88 80 72 65 64 62 57 65 60 56 48 44 34 29 28 29 35 39 42 46 52 55 62 66 73 81 84 87 95 95 94 95 95 92 91